Home > Weather > Stavanger > Past weeks

Flag for Norway Weather for the Past 2 Weeks in Stavanger, Norway

Now
41 °F

Partly cloudy.


Feels Like: 37 °F
Forecast: 45 / 49 °F
Wind: 6 mph from South

Location: Stavanger / Sola

Current Time: May 1, 2016 at 7:06:56 AM

Latest Report: May 1, 2016 at 6:20 AM


Visibility: N/A

Pressure: 30.21 "Hg

Humidity: 87%

Dew Point: 37 °F

Location of StavangerLocation

Historic Weather in Stavanger — Graph

°F

Stavanger Temperature Yesterday

Maximum temperature yesterday: 50 °F (at 2:50 PM)
Minimum temperature yesterday: 37 °F (at 8:20 AM)
Average temperature yesterday: 43 °F

High & Low Weather Summary for the Past Weeks

 TemperatureHumidityPressure
High52 °F (Apr 26, 4:20 PM)100% (Apr 29, 3:50 AM)30.39 "Hg (Apr 29, 3:50 AM)
Low30 °F (Apr 25, 5:50 AM)29% (Apr 26, 12:20 PM)29.45 "Hg (Apr 16, 6:50 PM)
Average43 °F69%29.84 "Hg
* Reported Apr 16 4:50 AM — May 1 4:50 AM, Stavanger, Weather by CustomWeather, © 2016

Note: Actual official high and low records may vary slightly from our data, if they occured in-between our weather recording intervals... More about our weather records

Advertising

Stavanger Weather History for the Previous 24 Hours

Scroll right to see more
 ConditionsComfort  
Time TempWeatherWind HumidityBarometerVisibility
4:50 AM
Sun, May 1
39 °FPassing clouds.5 mph93%30.18 "HgN/A
3:50 AM39 °FPartly cloudy.3 mph93%30.18 "HgN/A
2:50 AM41 °FPartly cloudy.5 mph93%30.15 "HgN/A
1:50 AM41 °FPartly cloudy.2 mph87%30.15 "HgN/A
12:50 AM41 °FPartly cloudy.5 mph87%30.15 "HgN/A
12:20 AM41 °FPartly cloudy.3 mph87%30.12 "HgN/A
11:50 PM
Sat, Apr 30
41 °FPartly cloudy.1 mph87%30.12 "HgN/A
11:20 PM41 °FPartly cloudy.3 mph87%30.12 "HgN/A
10:50 PM41 °FPartly cloudy.2 mph87%30.09 "HgN/A
10:20 PM41 °FBroken clouds.5 mph87%30.09 "HgN/A
9:50 PM43 °FBroken clouds.2 mph81%30.09 "HgN/A
9:20 PM41 °FBroken clouds.2 mph87%30.07 "HgN/A
8:50 PM41 °FScattered clouds.1 mph87%30.04 "HgN/A
8:20 PM43 °FBroken clouds.No wind81%30.04 "HgN/A
7:50 PM43 °FScattered showers. Broken clouds.3 mph81%30.04 "HgN/A
7:20 PM43 °FScattered showers. Partly sunny.6 mph76%30.04 "HgN/A
6:50 PM43 °FScattered showers. Broken clouds.7 mph76%30.01 "HgN/A
6:20 PM43 °FScattered showers. Broken clouds.10 mph81%30.01 "HgN/A
5:50 PM43 °FScattered showers. Broken clouds.8 mph81%30.01 "HgN/A
5:20 PM45 °FScattered showers. Broken clouds.14 mph76%29.98 "HgN/A
4:50 PM43 °FScattered showers. Broken clouds.8 mph81%29.98 "HgN/A
4:20 PM45 °FScattered showers. Partly sunny.13 mph76%29.95 "HgN/A
3:50 PM45 °FRain. Partly sunny.12 mph76%29.95 "HgN/A
3:20 PM48 °FScattered showers. Broken clouds.10 mph58%29.95 "HgN/A
2:50 PM50 °FPartly sunny.14 mph54%29.92 "HgN/A
2:20 PM48 °FScattered showers. Scattered clouds.13 mph62%29.92 "HgN/A
1:50 PM46 °FBroken clouds.8 mph66%29.92 "HgN/A
1:20 PM46 °FBroken clouds.12 mph66%29.92 "HgN/A
12:50 PM46 °FBroken clouds.12 mph66%29.92 "HgN/A
11:50 AM46 °FScattered showers. Partly sunny.7 mph66%29.89 "HgN/A
11:20 AM46 °FScattered showers. Partly sunny.9 mph71%29.89 "HgN/A
10:50 AM45 °FScattered showers. Partly sunny.10 mph76%29.89 "HgN/A
10:20 AM43 °FBroken clouds.9 mph76%29.89 "HgN/A
9:50 AM43 °FPartly sunny.7 mph81%29.89 "HgN/A
8:50 AM39 °FScattered showers. Broken clouds.6 mph87%29.89 "HgN/A
8:20 AM37 °FRain showers. Broken clouds.10 mph93%29.89 "HgN/A
7:50 AM41 °FRain showers. Broken clouds.20 mph70%29.86 "HgN/A
7:20 AM45 °FScattered showers. Broken clouds.12 mph61%29.86 "HgN/A
Weather by CustomWeather, © 2016

See weather overviewHow to use our weather pages